星链-36658(STARLINK-36658)

导读

STARLINK-36658是美国SpaceX公司星链计划的卫星之一,于2026年2月16日发射。星链项目旨在构建全球卫星互联网星座,为全球偏远地区、海洋空域等提供高速宽带网络服务。该卫星加入后将进一步扩充星链星座规模,提升系统覆盖范围与服务稳定性,推动全球互联网络基础设施建设。

Basic Information
目录编号:
67846
目录名称:
STARLINK-36658
国际标识:
2026-033AB
轨道中心:
EARTH
卫星名称:
星链-36658
卫星全名:
星链-36658(STARLINK-36658)
卫星状态:
在轨 (已飞行201 天)
发射日期:
2026-02-16 UTC
国别 :
美国 (US)
星等 :
--
Orbit Information
数据来源 国际轨道数据
星历时间: 2026-09-05T14:13:47+0800
9小时前
查看轨道信息
半长轴: 6861.11km
偏心率: 0.0000394
轨道倾角: 42.999°
近地点辐角 211.217°
升交点赤经 333.220°
平近点角 148.865°
近地点: 482.702km
远地点: 483.244km
周期: 94.265分钟
每日圈数: 15.276056
Detailed Information
固有亮度:
5
最大亮度:
2.5
卫星平台:
Starlink V1.0
覆盖范围:
全球
运营商:
太空探索技术公司
运营商所在国:
美国
制造商(研发单位):
太空探索技术公司
制造商所在国:
美国
使用方式:
暂无
Satellite Introduction
Starlink 计划是 SpaceX 推出的全球卫星互联网项目,通过发射低轨道卫星,为全球尤其是偏远地区提供高速、低延迟的互联网服务。自 2019 年起,Starlink 已部署数千颗卫星,旨在缩小全球数字鸿沟,推动互联网普及。该项目还为军事、航空等行业提供通信支持,带来广泛经济效益。
2D Orbit Map
3D Orbit Map
Orbit Altitude Analysis Chart
Orbit Inclination Analysis Chart
Orbit Comprehensive Analysis Chart
View Comprehensive Chart
Conjunction Data List
Event ID Objects TCA Miss Dist (km) Collision Risk Probability Collision Risk Index (CRI) Action
CDM_260907-231405-842406-784621
2026-09-07T
23:14:59+0000
0.519 km
远距离
1.479716E-4 高风险 0.78
CDM_260907-014005-980306-784621
2026-09-07T
01:40:43+0000
0.606 km
远距离
6.426239E-5 中风险 0.71
CDM_260906-031105-752306-784623
2026-09-06T
03:11:15+0000
1.028 km
极远距离
1.548972E-5 中风险 0.59
CDM_260906-114905-752306-784622
2026-09-06T
11:49:05+0000
1.077 km
极远距离
1.316464E-5 中风险 0.57
CDM_260907-154306-711006-784621
2026-09-07T
15:43:09+0000
1.137 km
极远距离
1.112934E-5 中风险 0.56
CDM_260907-140906-711006-784621
2026-09-07T
14:09:01+0000
1.175 km
极远距离
9.92097E-6 低风险 0.55
CDM_260907-214005-842406-784621
2026-09-07T
21:40:49+0000
1.495 km
极远距离
5.168356E-6 低风险 0.49
CDM_260907-132605-980306-784621
2026-09-07T
13:26:52+0000
1.363 km
极远距离
4.452132E-6 低风险 0.48
CDM_260907-115205-980306-784621
2026-09-07T
11:52:43+0000
1.678 km
极远距离
2.340018E-6 低风险 0.42
CDM_260903-051506-579806-784621
2026-09-03T
05:15:50+0000
2.242 km
极远距离
2.000047E-6 低风险 0.41